www.pogodaiklimat.ru

Погода и климат >> Архив погоды >> Мексика >> Mexico City


АРХИВ ПОГОДЫ в Mexico City

Время (UTC), дата Ветер
(напр.,м/с)
 
Видим.   Явления Облачность Т
(С)
Тd
(С)
f
(%)
Тe
(С)
Тes
(С)
Комфортность P
(гПа)
Po
(гПа)
Тmin
(С)
Tmax
(С)
R
(мм)
R24
(мм)
S
(см)
03 14.11 СЗ 3 6000 м слабая морось 10/5 750 м
[Sc diur, vesp As op]
+12.2 +9.9 86 +11 +11 холодно 1012.0 777.3 0.0
15 14.11 С 3 1000 м переохл. дождь (гололёд) {туман} 10/8 750 м
[Cu Sc As op]
+4.2 +4.9 100 0 0 очень
холодно
1026.2 779.9 1
18 14.11 СВ 1 1000 м мгла 10/5 600 м
[Sc diur, vesp As op]
+6.0 +5.3 95 +5 +6 очень
холодно
1026.9 779.6 9
21 14.11 В 2 1000 м мгла 10/6 750 м
[Sc diur, vesp As op]
+7.2 +5.8 91 +5 +6 очень
холодно
1023.8 777.4 4
00 15.11 З 2 2000 м дым 5/1 600 м
[Sc diur, vesp As op]
+9.6 +8.3 92 +8 +8 очень
холодно
1022.5 777.2 +4.0 +10.2
03 15.11 СВ 2 2000 м в посл. час туман 8/0 2000 м
[As op]
+8.2 +7.5 95 +6 +6 очень
холодно
1023.3 778.5
06 15.11 СВ 1 2000 м дым 10/10 300 м
[St]
+8.2 +7.3 94 +7 +7 холодно 1021.7 777.9 +4.0 +10.2
09 15.11 СЗ 2 2000 м дым 10/10 500 м
[St]
+8.1 +7.2 94 +6 +6 прохладно 1020.2 777.0
12 15.11 СЗ 1 5000 м дым 10/10 500 м
[St]
+7.8 +6.6 92 +7 +7 по сезону 1020.2 776.8 +7.8 +10.2
15 15.11 СЗ 1 2000 м дымка {туман} 10/8 750 м
[Cu Sc Ac As]
+8.2 +6.8 91 +7 +8 холодно 1022.4 778.4
18 15.11 В 1 2000 м мгла 3/3 750 м
[Cu hum]
+13.6 +9.7 77 +14 +24 холодно 1020.7 777.8 +7.5 +14.6
21 15.11 ЮВ 1 2000 м мгла 1/1 750 м
[Cu hum]
+19.0 +12.0 64 +21 +30 комфорт 1014.0 774.4
00 16.11 СЗ 1 6000 м дым 4/4 600 м
[Cu med, cong]
+18.4 +8.0 51 +20 +20 по сезону 1011.6 774.6 +7.5 +21.1
03 16.11 З 1 10 км ясно +13.0 +7.4 69 +13 +13 прохладно 1013.5 777.3
15 16.11 В 2 3000 м дым {туман} ясно +0.6 +7.2 100 -3 0 очень
холодно
1020.7 777.6
18 16.11 ЮВ 2 1000 м мгла 1/1 750 м
[Cu hum]
+16.6 +10.0 65 +17 +28 по сезону 1018.1 776.4 +5.6 +17.5
21 16.11 ЮВ 2 2000 м мгла ясно +21.0 +10.9 52 +24 +32 комфорт 1012.5 774.1
00 17.11 ЮВ 3 5000 м дым 3/3 600 м
[Cu med, cong]
+18.4 +10.6 60 +19 +19 по сезону 1009.7 774.2 +5.6 +22.2
15 17.11 В 1 2000 м дым {туман} 1/0
[Ci fib]
+12.6 +9.0 79 +13 +17 по сезону 1018.5 777.5
18 17.11 В 2 3000 м дым 1/0 600 м
[Ci fib]
+19.0 +11.3 61 +20 +33 опасность
простуды
1016.4 776.6 +7.6 +22.5
21 17.11 С 2 2000 м ясно +21.8 +14.9 65 +25 +33 комфорт 1010.7 774.1
00 18.11 ЮВ 1 6000 м дым 6/0 2000 м
[As op Ci fib]
+20.0 +10.9 56 +23 +23 комфорт 1008.6 774.7 +7.6 +23.7
03 18.11 СЗ 1 6000 м ясно +15.3 +8.3 63 +16 +16 по сезону 1001.6 770.4
06 19.11 ЮЗ 1 6000 м дым ясно +12.1 +8.6 79 +12 +12 по сезону 1012.6 777.2 +21.5
09 19.11 ЮЗ 2 5000 м дым ясно +10.2 +7.3 82 +9 +9 по сезону 1013.7 776.4
12 19.11 штиль 0 5000 м дым ясно +8.4 +3.6 72 +8 +8 по сезону 1016.6 776.8 +7.5 +21.5
15 19.11 В 2 2000 м дым {туман} ясно +11.8 +8.1 78 +11 +14 прохладно 1020.3 778.5
18 19.11 Ю 2 3000 м дым {туман} ясно +19.4 +10.0 55 +21 +34 комфорт 1018.0 777.6 +6.5 +22.0
21 19.11 СВ 3 2000 м ясно +24.6 +6.5 31 +25 +31 комфорт 1011.5 774.8
00 20.11 В 1 10 км ясно +21.0 +7.4 41 +23 +23 комфорт 1009.1 775.3 +6.5 +25.5
03 20.11 СВ 1 10 км дым ясно +16.8 +18 +18 тепло 1009.7 777.2
15 20.11 СВ 1 1000 м дым {туман} 1/0
[Ci]
+12.8 +8.2 74 +13 +17 по сезону 1018.5 778.6
18 20.11 СВ 2 2000 м мгла ясно +20.8 +11.7 56 +24 +36 комфорт 1016.5 777.5 +8.5 +21.5
21 20.11 СВ 2 2000 м мгла ясно +24.8 +12.4 46 +27 +34 жарко 1011.0 775.1

 

Местоположение метеостанции Mexico City (Мексика): широта 19.40 долгота -99.18 высота над уровнем моря 2303 м.

В архиве по умолчанию представлена погода в Mexico City за последнюю неделю. Архивные данные за месяц целиком и за предыдущие месяцы, начиная с января 2011 года, Вы можете получить, выбрав интересующий диапазон дат из раскрывающегося списка и нажав кнопку "Ввод!".


*Определитесь, кто Вы:
робот инопланетянин человек

Внимание! Время в таблицах - всемирное. Для получения местного времени необходимо прибавить поправку, которая в Mexico City равна -6 ч.

Смотрите также архив погоды в соседних городах и на ближайших метеорологических станциях:

Погода в Institute of Geography (Мексика) (9 км)
Погода в Toluca (Мексика) (54 км)
Погода в Cuernavaca (Мексика) (58 км)
Погода в Zacatepec (Мексика) (78 км)
Погода в Pachuca (Мексика) (93 км)
Погода в Tlaxcala (Мексика) (98 км)
Погода в Tlaxcala Airport (Мексика) (99 км)
Погода в Tulancingo (Мексика) (114 км)
Погода в Puebla (Мексика) (114 км)
Погода в Queretaro (Мексика) (183 км)

Пояснения к столбцам:

Ветер - указаны скорость ветра в м/с - средняя за 10 мин, порывы в срок и между сроками (в фигурных скобках) и направление, откуда дует ветер: С - северный, СВ - северо-восточный, В - восточный, ЮВ - юго-восточный, Ю - южный, ЮЗ - юго-западный, З - западный, СЗ - северо-западный.
Видимость - горизонтальная дальность видимости в метрах или километрах. При видимости от 1 до 10 км при отсутствии осадков обычно наблюдается дымка, при ухудшении видимости до 1 км и менее - туман. В сухую погоду видимость может ухудшаться дымом, пылью или мглою.
Явления - указаны атмосферные явления, наблюдавшиеся в срок или в последний час перед сроком; фигурными скобками обозначены явления, наблюдавшиеся между сроками (за 1-3 часа до срока); квадратными скобками обозначены град или гололедные отложения с указанием их диаметра в мм.
Облачность - указаны через наклонную черту общая и нижняя облачность в баллах и высота нижней границы облаков в метрах; квадратными скобками обозначены формы облаков: Ci - перистые, Cs - перисто-слоистые, Cc - перисто-кучевые, Ac - высококучевые, As - высокослоистые, Sc - слоисто-кучевые, Ns - слоисто-дождевые, Cu - кучевые, Cb - кучево-дождевые. Подробнее классификацию облаков см. в Атласе облаков (PDF).
T - Температура воздуха - температура, измеренная на высоте 2 м над землей.
Td - Температура точки росы - температура, при понижении до которой содержащийся в воздухе водяной пар достигнет насыщения.
f - Относительная влажность воздуха - влажноcть воздуха, измеренная на высоте 2 м над землей.
Te - Эффективная температура - температура, которую ощущает одетый по сезону человек в тени. Характеристика душности погоды. При расчете учитывается влияние влажности воздуха и скорости ветра на теплоощущения человека.
Tes - Эффективная температура на солнце - температура, которую ощущает человек, с поправкой на солнечный нагрев. Характеристика знойности погоды. Зависит от высоты солнца над горизонтом, облачности и скорости ветра. Ночью, в пасмурную погоду, а также при ветре 12 м/с и более поправка равна нулю.
P - Атмосферное давление - приведенное к уровню моря атмосферное давление.
Po - Атмосферное давление - измеренное на уровне метеостанции атмосферное давление.
Tmin - Минимальная температура - минимум температуры воздуха на высоте 2 м над землей.
Tmax - Максимальная температура - максимум температуры воздуха на высоте 2 м над землей.
R - Количество осадков - Количество выпавших осадков за период времени, мм. При наведении курсора мыши на число - период времени, за который выпало указанное количество осадков.
R24 - Количество осадков - Количество выпавших осадков за 24 часа, мм.
S - Снежный покров - Высота снежного покрова, см. При наведении курсора мыши на число - состояние снежного покрова и степень покрытия местности в баллах.